This is the latest recevied weather packets stored in our database for station/object K5EAA-13. If no packets are shown the sender has not sent any weather packets the latest 10 day(s).
| Time | Temp. | Humidity | Pressure | Rain* | Wind** | Luminosity | Snow |
|---|---|---|---|---|---|---|---|
| 1787784405 | 38.33° C | 30% | 1011.4 hPa | 0 mm | - | 250 W/m² | - |
| 1787784104 | 38.89° C | 30% | 1011.3 hPa | 0 mm | - | 267 W/m² | - |
| 1787783801 | 40° C | 29% | 1011.6 hPa | 0 mm | - | 281 W/m² | - |
| 1787783502 | 38.89° C | 30% | 1011.6 hPa | 0 mm | - | 299 W/m² | - |
| 1787783197 | 38.33° C | 30% | 1011.5 hPa | 0 mm | - | 314 W/m² | - |
| 1787782892 | 38.33° C | 30% | 1011.9 hPa | 0 mm | - | 332 W/m² | - |
| 1787782591 | 38.33° C | 31% | 1012 hPa | 0 mm | - | 350 W/m² | - |
| 1787782286 | 38.33° C | 30% | 1011.9 hPa | 0 mm | - | 365 W/m² | - |
| 1787781982 | 38.89° C | 28% | 1012.2 hPa | 0 mm | - | 379 W/m² | - |
| 1787781677 | 38.89° C | 28% | 1011.9 hPa | 0 mm | - | 395 W/m² | - |
| 1787781374 | 38.89° C | 29% | 1012.1 hPa | 0 mm | - | 410 W/m² | - |
| 1787781074 | 38.33° C | 28% | 1012.2 hPa | 0 mm | - | 427 W/m² | - |
| 1787780772 | 38.33° C | 28% | 1012.3 hPa | 0 mm | - | 440 W/m² | - |
| 1787780467 | 38.89° C | 28% | 1012.5 hPa | 0 mm | - | 465 W/m² | - |
| 1787780163 | 38.89° C | 28% | 1012.4 hPa | 0 mm | - | 478 W/m² | - |
| 1787779858 | 38.89° C | 28% | 1012.4 hPa | 0 mm | - | 293 W/m² | - |
| 1787779558 | 38.33° C | 28% | 1012.6 hPa | 0 mm | - | 552 W/m² | - |
| 1787779252 | 38.33° C | 28% | 1012.5 hPa | 0 mm | - | 627 W/m² | - |
| 1787778947 | 37.78° C | 30% | 1012.6 hPa | 0 mm | - | 707 W/m² | - |
| 1787778643 | 37.22° C | 32% | 1012.7 hPa | 0 mm | - | 501 W/m² | - |
| 1787778338 | 37.22° C | 31% | 1012.7 hPa | 0 mm | - | 364 W/m² | - |
| 1787778034 | 37.22° C | 32% | 1012.8 hPa | 0 mm | - | 322 W/m² | - |
| 1787777727 | 37.22° C | 34% | 1012.9 hPa | 0 mm | - | 297 W/m² | - |
| 1787777424 | 37.22° C | 33% | 1012.9 hPa | 0 mm | - | 275 W/m² | - |
| 1787777124 | 37.22° C | 32% | 1013.1 hPa | 0 mm | - | 251 W/m² | - |
* Rain latest hour (hover to see other rain measurements)
** Current wind speed in m/s (hover to see current wind gust speed)